Wetbulb
75.31 74.71 74.71 71.30 59.56 60.11 55.31 58.58 62.72 61.54 61.94 65.56 66.17 64.27 62.43 63.64 62.43 56.61 70.55 72.48 74.37 74.57 76.11 76.73 77.87 77.23 76.83 77.22 76.78 76.68 76.66 76.63 76.71 76.41 76.20 76.12 76.21 76.61 77.13 76.72 77.23 77.29 77.58 77.29 77.37 77.37 77.12 77.15 77.01
74.25 73.98 73.00 67.71 55.80 52.37 55.84 61.91 60.46 62.76 64.60 66.21 66.44 65.40 63.47 61.09 66.64 67.69 69.33 73.74 74.74 75.20 75.61 76.01 77.72 77.94 77.16 77.11 77.09 77.19 77.03 76.69 76.76 76.90 76.50 76.22 76.10 76.64 77.06 76.49 77.44 77.21 77.52 77.35 77.15 76.85 76.99 77.07 76.90
74.55 75.06 67.28 62.85 56.06 52.39 55.74 61.37 62.73 64.76 66.86 65.89 64.38 66.62 64.94 62.78 67.39 67.97 71.77 73.77 74.67 74.69 75.59 76.11 78.38 78.12 77.31 77.78 77.26 77.04 76.91 76.33 76.49 76.43 76.78 76.26 76.02 76.71 76.62 77.10 77.51 77.27 77.44 77.50 77.54 77.29 77.04 77.04 76.85
73.13 71.34 68.18 58.54 54.97 58.99 59.79 62.53 64.75 64.76 65.40 66.45 65.28 62.35 66.85 69.32 68.07 70.45 72.94 73.89 73.58 74.10 75.22 77.52 78.11 77.53 77.68 77.11 77.31 77.22 77.01 76.70 76.02 76.18 76.88 76.65 76.52 76.87 76.54 77.41 77.52 77.37 77.37 77.67 77.04 77.11 77.00 76.93 76.76
72.85 68.05 58.12 56.62 57.45 60.94 62.38 65.05 64.96 63.70 64.35 64.43 65.60 62.24 63.57 69.35 70.56 71.80 72.62 73.40 72.90 74.39 75.59 76.09 78.51 78.00 77.33 77.05 77.32 77.43 77.06 76.48 76.37 76.32 76.92 77.16 77.26 77.23 76.82 77.34 77.50 76.91 76.94 77.48 77.42 77.14 76.76 76.18 76.39
65.45 64.63 56.86 54.29 57.70 62.28 63.93 65.65 65.56 64.73 64.90 64.40 63.60 63.51 63.92 68.88 69.54 70.76 72.18 72.86 74.14 74.19 74.65 75.63 78.39 78.03 77.63 77.01 77.18 77.29 77.47 77.38 77.00 77.52 77.56 77.24 77.38 77.35 77.14 77.31 77.52 77.49 77.38 77.27 77.15 77.02 76.78 75.99 75.88
63.92 60.30 56.34 57.25 57.90 60.66 63.14 66.12 63.92 64.05 64.29 63.70 66.32 62.23 64.05 67.46 68.37 70.25 71.91 73.08 73.54 74.08 74.33 75.01 75.36 76.02 77.48 77.63 77.65 77.29 77.51 77.33 77.38 77.54 77.47 77.41 77.27 77.36 77.21 77.16 77.63 77.35 77.52 77.38 77.14 77.03 76.66 76.28 75.47
65.83 62.31 57.99 58.65 57.93 58.85 65.21 66.22 66.86 65.39 64.95 68.16 67.05 61.20 61.89 66.58 67.18 70.83 72.08 71.57 71.80 72.91 74.31 73.69 73.80 74.33 72.87 74.36 77.32 77.35 77.74 77.66 77.55 77.61 77.49 77.47 77.53 77.33 77.43 77.70 77.52 77.19 76.94 76.70 76.92 76.91 76.62 76.04 74.99
66.68 59.03 56.46 58.36 58.91 61.30 66.16 64.41 67.49 69.15 65.72 67.11 67.14 65.76 67.53 67.15 70.48 70.04 69.43 69.07 69.62 71.49 73.06 73.51 73.83 72.63 72.73 73.97 75.38 77.06 77.38 77.61 77.65 77.14 77.26 75.54 74.07 75.34 75.43 76.23 76.93 77.58 77.07 76.70 76.37 76.57 76.71 76.17 75.60
61.82 57.40 58.91 63.65 63.53 62.90 65.29 65.06 66.22 65.79 65.07 64.69 65.04 67.82 67.94 65.93 68.49 67.27 67.42 66.41 66.88 68.23 71.00 72.51 72.38 71.25 71.53 74.62 73.52 73.69 74.89 74.43 73.69 73.59 73.38 72.43 72.86 73.10 74.95 76.57 77.06 77.15 76.81 76.37 75.92 76.37 76.01 73.91 70.58
62.33 57.34 62.90 64.84 64.76 65.57 64.55 64.51 65.75 64.43 62.70 64.19 63.44 65.53 65.49 64.61 66.16 65.95 67.34 67.34 67.83 68.85 69.44 70.73 70.93 70.36 70.50 71.60 71.56 72.28 72.81 73.36 73.55 72.45 73.15 70.68 72.72 70.50 71.82 73.36 74.06 73.99 75.51 72.34 74.06 73.92 71.85 70.40 69.74
58.72 62.69 63.46 65.09 65.96 66.21 64.48 66.56 63.02 64.95 65.41 67.46 66.66 66.85 64.04 63.74 64.24 64.67 65.50 66.93 68.38 69.15 69.14 69.66 69.25 69.80 70.48 70.84 72.09 72.03 71.58 72.66 72.82 72.34 71.60 71.88 71.53 70.22 71.12 73.10 73.54 72.96 70.10 70.91 71.11 69.74 68.49 68.39 70.03
60.35 62.22 64.09 65.77 66.57 66.62 67.37 65.42 64.93 64.74 66.82 67.39 67.01 65.15 62.70 62.31 63.72 64.93 65.57 67.68 68.79 68.90 69.46 69.58 71.11 70.25 70.70 71.84 72.32 70.80 70.77 72.31 73.02 72.44 72.07 72.13 71.91 70.83 72.35 71.89 72.58 71.45 68.22 70.08 70.22 70.41 69.70 68.62 69.32
63.50 62.85 63.35 63.73 66.34 66.03 64.80 64.80 65.63 65.27 66.83 65.67 64.86 62.80 61.39 61.36 62.77 63.01 65.46 65.55 67.44 68.32 69.14 70.38 71.75 70.58 71.56 71.44 71.77 71.15 69.53 70.36 72.79 72.97 71.66 70.88 71.83 71.49 69.84 70.50 70.46 70.23 68.11 70.70 70.27 70.39 68.74 67.86 68.56
63.41 60.55 61.92 63.15 65.31 64.27 65.97 62.13 62.49 66.00 66.39 64.27 63.06 60.70 61.22 61.09 62.07 62.01 64.91 64.73 64.79 65.81 69.11 69.71 71.20 71.06 71.33 70.43 71.20 71.17 70.80 72.15 72.99 73.30 71.68 70.27 70.20 69.35 70.11 69.96 68.83 70.66 70.16 70.22 70.55 70.35 68.95 68.07 69.37
59.80 59.71 56.51 63.33 64.45 65.14 62.90 56.10 63.34 66.21 65.03 62.87 62.07 61.15 61.18 60.91 61.49 61.34 64.49 65.35 64.36 64.06 64.23 67.20 72.21 71.55 70.78 70.17 70.78 71.69 72.71 72.91 72.65 73.48 72.72 72.08 70.87 70.53 70.97 70.93 69.12 70.88 70.90 71.68 70.35 70.17 69.40 69.11 69.15
57.09 51.78 54.23 60.37 63.50 62.47 62.19 58.02 63.72 65.65 64.65 62.98 62.67 61.86 62.29 60.82 61.44 62.83 64.62 63.83 64.08 66.93 67.71 64.98 70.10 69.95 69.87 69.99 70.21 70.74 70.85 72.38 73.24 73.41 72.89 72.17 72.60 72.77 71.08 70.30 69.10 70.77 70.37 70.73 70.30 69.51 69.46 68.56 68.74
50.25 51.37 55.81 56.73 59.44 60.39 60.67 59.64 62.99 64.57 64.01 63.15 63.09 63.30 62.63 61.89 62.02 63.89 64.72 65.67 66.35 67.26 67.78 66.75 68.34 68.17 69.41 70.24 69.35 68.82 69.39 72.16 73.02 73.40 73.06 72.75 73.00 73.16 70.92 70.11 69.91 70.65 69.56 69.54 70.88 69.66 70.00 69.77 69.41
53.96 52.75 53.03 58.24 60.95 57.23 59.61 59.51 61.32 63.15 63.12 62.30 62.39 62.50 62.59 64.00 64.87 64.33 64.91 66.63 66.58 67.49 67.11 66.40 69.05 68.96 70.23 69.09 67.39 66.60 68.17 71.04 72.57 73.27 73.15 72.15 72.72 72.90 70.97 70.68 70.18 69.85 68.68 68.85 70.25 70.32 69.50 68.60 69.82
54.62 51.33 50.93 59.04 60.02 58.69 57.24 59.12 61.50 62.49 62.46 62.53 62.85 62.69 63.51 63.88 63.88 64.42 63.73 63.86 65.74 66.37 67.10 66.12 67.94 70.41 70.29 69.71 69.58 70.50 70.27 70.44 71.57 73.96 74.05 73.45 72.53 73.41 72.10 71.46 70.73 69.29 69.35 69.51 69.62 70.32 68.72 68.63 69.17
47.83 48.94 48.94 54.00 59.90 61.43 59.26 56.67 58.69 61.94 63.50 63.67 63.89 63.98 64.34 64.06 63.54 62.69 62.94 64.39 65.58 65.42 66.03 66.30 66.76 70.08 69.53 70.17 69.61 70.26 71.33 70.93 70.30 71.90 72.73 73.31 72.87 73.20 73.09 72.18 70.71 69.78 69.94 69.96 68.92 70.56 69.24 67.23 68.79
46.03 50.07 52.00 59.44 57.04 52.42 57.94 48.74 53.42 59.24 60.14 62.36 62.96 63.30 64.00 64.36 64.38 62.88 64.25 64.30 65.36 65.81 66.34 65.75 64.67 65.66 69.07 69.14 69.24 68.65 68.26 67.97 69.62 69.82 72.18 72.71 73.01 73.16 72.63 72.29 72.48 70.86 70.39 70.46 69.91 71.58 70.88 70.18 68.07
47.30 51.55 49.88 59.45 52.03 52.69 52.88 48.88 51.88 56.82 57.03 60.31 62.57 63.75 64.67 65.91 64.46 62.99 63.38 65.25 66.41 66.95 66.88 66.28 64.84 64.88 67.52 69.16 68.71 69.56 68.82 69.79 69.91 70.07 71.47 72.36 70.43 70.15 70.45 70.35 71.60 71.99 71.95 71.77 70.82 70.88 69.71 70.32 68.88
51.14 48.56 46.17 44.23 46.87 43.19 49.65 48.25 48.66 52.28 56.68 60.46 62.90 64.63 65.57 66.24 66.96 65.91 65.22 65.18 65.72 67.15 67.43 66.61 64.84 64.35 66.81 69.62 70.00 68.42 69.94 70.33 70.26 70.08 67.73 68.45 68.65 68.36 66.99 68.55 68.86 70.53 72.69 71.71 71.69 71.36 70.25 70.50 70.05
48.39 42.01 38.03 38.81 39.68 40.98 49.08 48.09 48.13 55.76 58.63 61.69 62.04 63.46 64.38 66.81 66.90 67.25 66.59 66.64 66.99 66.81 66.65 66.66 65.57 65.15 66.93 68.36 69.82 71.41 70.55 71.16 70.97 70.57 66.83 66.99 65.02 66.31 66.50 67.36 68.60 69.60 71.42 72.76 71.97 71.29 70.97 70.92 70.40
45.58 43.15 38.70 38.30 38.30 43.60 49.08 45.70 50.68 57.88 60.38 61.21 64.38 62.73 63.82 63.33 65.12 67.02 67.47 67.45 67.66 68.14 66.85 66.34 66.00 65.95 67.09 67.97 69.33 70.34 71.49 71.84 72.11 71.76 70.47 67.95 70.02 69.34 68.37 68.88 69.87 70.64 72.32 72.63 72.29 71.00 71.03 70.45 70.16
45.84 44.75 46.48 43.86 44.47 44.75 47.52 50.92 55.61 59.18 58.24 60.95 61.47 61.45 62.08 63.97 64.57 64.81 66.37 68.16 68.39 68.75 67.31 66.21 65.85 66.85 67.32 68.16 68.43 70.23 71.22 71.10 71.36 72.00 72.38 71.65 70.60 71.72 70.39 70.13 69.84 70.77 71.80 72.71 72.34 71.60 70.67 70.25 70.36
50.85 47.92 43.50 42.96 42.03 42.74 44.97 46.17 47.81 53.47 56.06 59.18 60.02 60.31 62.39 64.72 66.13 67.09 66.99 65.52 67.73 68.38 67.85 66.76 66.36 67.00 67.32 68.07 68.30 69.41 73.07 72.79 72.33 72.28 72.53 72.24 72.71 73.46 72.21 71.21 70.21 71.05 69.79 71.34 72.63 71.59 70.45 69.71 69.75
49.58 47.01 44.63 41.97 44.18 42.41 42.39 44.23 51.89 54.77 57.54 57.76 59.12 60.19 61.27 64.22 64.83 65.50 64.88 65.18 66.94 68.19 67.20 66.80 66.07 67.46 67.40 68.54 70.27 70.27 71.15 72.47 73.96 73.55 73.77 74.16 74.22 72.31 72.15 71.76 71.26 70.98 70.53 71.11 72.94 71.67 71.51 70.74 69.89
50.84 47.62 41.77 38.98 41.39 45.34 45.29 45.19 56.46 57.30 57.93 60.06 59.14 59.67 60.99 62.91 62.74 63.60 63.46 65.97 68.31 67.38 66.98 66.39 66.31 67.92 68.81 69.52 70.46 71.86 72.38 72.58 72.65 73.20 73.99 74.02 74.58 73.60 72.72 72.53 71.77 71.43 71.42 73.58 73.43 72.58 72.56 71.33 70.43
MSLP
1010.04 1010.28 1010.50 1010.80 1011.25 1010.50 1010.16 1009.06 1007.96 1007.65 1008.07 1008.13 1008.20 1008.83 1010.19 1010.63 1011.03 1012.51 1012.67 1013.24 1013.55 1013.96 1014.21 1014.49 1014.80 1014.86 1015.01 1015.28 1015.38 1015.44 1015.57 1015.66 1015.72 1015.94 1016.06 1016.09 1016.12 1016.23 1016.34 1016.49 1016.63 1016.80 1016.87 1016.90 1017.09 1017.24 1017.33 1017.51 1017.72
1009.92 1010.29 1010.48 1010.56 1010.74 1010.31 1009.93 1008.71 1008.13 1007.65 1007.99 1008.16 1008.57 1009.39 1009.95 1011.17 1011.11 1012.24 1012.95 1013.41 1013.54 1013.85 1014.33 1014.60 1014.88 1015.07 1015.13 1015.32 1015.47 1015.50 1015.58 1015.74 1015.84 1016.04 1016.18 1016.30 1016.33 1016.41 1016.46 1016.64 1016.83 1016.97 1016.97 1017.03 1017.15 1017.29 1017.37 1017.61 1017.87
1009.97 1009.89 1010.45 1010.24 1009.93 1009.60 1009.34 1008.81 1008.18 1008.14 1007.90 1008.11 1009.28 1009.86 1010.60 1011.41 1011.73 1012.25 1012.81 1013.26 1013.60 1014.11 1014.49 1014.73 1014.92 1015.11 1015.24 1015.42 1015.51 1015.59 1015.66 1015.80 1015.97 1016.14 1016.29 1016.52 1016.61 1016.75 1016.89 1016.92 1017.03 1017.15 1017.15 1017.32 1017.43 1017.67 1017.75 1017.81 1018.19
1009.61 1010.12 1010.26 1009.63 1009.07 1008.55 1008.26 1008.05 1007.97 1008.04 1008.40 1008.75 1009.53 1010.37 1011.13 1011.19 1011.57 1011.96 1012.84 1013.39 1013.78 1014.44 1014.70 1014.85 1015.06 1015.16 1015.41 1015.51 1015.54 1015.72 1015.81 1015.96 1016.08 1016.18 1016.40 1016.61 1016.82 1017.07 1017.17 1017.28 1017.31 1017.40 1017.58 1017.65 1017.63 1017.78 1018.01 1018.10 1018.27
1009.53 1009.86 1010.08 1009.37 1008.56 1007.91 1007.59 1007.32 1007.19 1007.65 1008.40 1009.14 1009.44 1010.75 1011.12 1011.31 1011.51 1012.33 1012.90 1013.49 1013.95 1014.59 1014.73 1014.91 1015.17 1015.31 1015.56 1015.61 1015.75 1015.81 1016.02 1016.14 1016.02 1016.26 1016.56 1016.73 1017.06 1017.29 1017.51 1017.49 1017.52 1017.65 1017.75 1017.77 1018.01 1018.23 1018.41 1018.55 1018.59
1010.21 1010.60 1010.12 1009.03 1008.11 1007.38 1007.05 1006.62 1006.78 1007.40 1008.36 1009.32 1009.94 1010.55 1011.45 1011.45 1011.79 1012.37 1012.85 1013.57 1013.90 1014.48 1014.81 1014.91 1015.17 1015.51 1015.62 1015.80 1015.93 1015.97 1016.15 1016.19 1016.28 1016.49 1016.71 1016.94 1017.25 1017.54 1017.71 1017.75 1017.77 1017.86 1018.01 1018.15 1018.34 1018.53 1018.72 1018.87 1018.99
1011.05 1011.10 1010.52 1009.03 1007.80 1006.88 1006.45 1006.31 1006.55 1007.35 1008.05 1008.77 1009.19 1010.54 1011.49 1011.73 1012.05 1012.37 1013.11 1013.78 1014.34 1014.56 1014.79 1015.07 1015.22 1015.47 1015.71 1015.92 1015.97 1016.14 1016.32 1016.41 1016.51 1016.69 1016.89 1017.21 1017.50 1017.70 1017.80 1017.96 1017.93 1018.14 1018.21 1018.36 1018.49 1018.66 1018.77 1018.88 1018.97
1011.35 1011.59 1010.11 1008.48 1006.87 1006.16 1005.87 1006.14 1006.30 1006.68 1007.67 1008.57 1009.17 1010.19 1010.93 1011.35 1011.91 1012.61 1013.58 1014.22 1014.73 1015.10 1015.10 1015.21 1015.33 1015.59 1016.01 1015.99 1016.17 1016.35 1016.41 1016.67 1016.73 1016.80 1017.07 1017.25 1017.45 1017.61 1017.86 1018.07 1018.21 1018.19 1018.31 1018.54 1018.73 1018.77 1018.88 1018.81 1018.88
1010.60 1011.31 1009.74 1007.61 1006.18 1005.77 1005.70 1006.07 1006.19 1006.53 1007.55 1008.26 1008.76 1009.05 1010.05 1011.13 1011.77 1012.96 1013.91 1014.64 1015.05 1015.45 1015.53 1015.39 1015.45 1015.86 1016.17 1016.21 1016.30 1016.52 1016.59 1016.77 1016.80 1016.95 1017.17 1017.49 1017.67 1017.67 1017.86 1018.22 1018.11 1018.23 1018.71 1018.90 1018.87 1018.99 1019.04 1019.19 1019.23
1010.41 1010.44 1008.08 1006.07 1005.27 1005.43 1005.41 1005.67 1006.12 1006.86 1007.75 1008.44 1008.97 1009.55 1010.56 1011.14 1011.94 1012.89 1013.81 1014.61 1015.10 1015.57 1015.81 1015.54 1015.53 1016.03 1016.23 1016.16 1016.45 1016.67 1016.75 1017.00 1017.06 1016.94 1017.01 1017.19 1017.72 1017.87 1017.89 1018.06 1018.21 1018.45 1018.79 1019.05 1019.15 1019.37 1019.47 1019.84 1019.94
1010.53 1009.44 1007.57 1005.56 1004.70 1005.31 1005.37 1005.95 1006.30 1007.11 1007.84 1008.18 1008.52 1009.65 1010.77 1011.46 1012.06 1012.82 1013.54 1014.00 1014.49 1015.15 1015.67 1015.61 1015.55 1015.89 1015.97 1016.15 1016.59 1016.73 1016.99 1017.11 1017.19 1017.10 1017.04 1017.26 1017.75 1018.18 1018.09 1018.28 1018.51 1018.69 1018.79 1019.45 1019.57 1019.52 1019.95 1019.90 1020.13
1010.00 1008.13 1007.79 1006.29 1004.47 1004.81 1005.57 1005.87 1006.77 1007.03 1007.31 1007.93 1008.63 1009.29 1010.83 1011.69 1012.27 1012.86 1013.37 1013.77 1014.42 1015.15 1015.42 1015.47 1015.40 1015.86 1015.91 1016.21 1016.44 1016.60 1017.00 1017.13 1017.43 1017.24 1017.33 1017.61 1018.13 1018.27 1018.44 1018.75 1018.70 1018.89 1019.45 1019.58 1019.71 1019.86 1019.84 1020.19 1020.26
1008.79 1007.26 1006.03 1005.27 1004.27 1004.45 1005.05 1006.04 1006.99 1007.93 1008.05 1008.96 1009.70 1010.54 1011.34 1012.04 1012.68 1013.10 1013.23 1013.64 1014.32 1014.80 1015.07 1015.17 1015.28 1015.74 1015.89 1016.11 1016.25 1016.48 1016.75 1016.88 1017.10 1017.33 1017.28 1017.57 1017.97 1018.19 1018.27 1018.66 1018.93 1019.21 1019.49 1019.47 1019.52 1019.54 1019.41 1019.89 1020.23
1007.48 1007.06 1005.87 1005.80 1004.37 1004.75 1005.25 1006.69 1007.02 1009.36 1009.13 1009.86 1010.42 1011.19 1011.68 1012.20 1012.62 1013.10 1013.37 1013.93 1014.31 1014.67 1014.69 1014.89 1015.12 1015.31 1015.64 1016.04 1016.10 1016.24 1016.49 1016.59 1016.75 1016.96 1017.21 1017.46 1017.77 1018.12 1018.33 1018.54 1018.79 1019.12 1019.35 1019.13 1019.28 1019.37 1019.57 1019.93 1020.33
1007.28 1006.75 1005.68 1005.27 1004.55 1005.36 1005.36 1007.05 1008.17 1009.27 1009.76 1010.33 1011.13 1011.69 1012.05 1012.41 1012.71 1013.11 1013.51 1013.92 1014.21 1014.36 1014.49 1014.78 1014.95 1015.22 1015.63 1015.88 1015.91 1016.02 1016.22 1016.07 1016.43 1016.67 1016.89 1017.31 1017.56 1017.93 1018.18 1018.52 1018.90 1018.97 1019.22 1019.27 1019.47 1019.48 1019.33 1019.85 1020.13
1007.28 1007.04 1006.16 1004.77 1004.37 1004.99 1005.29 1007.63 1008.95 1009.47 1009.82 1010.73 1011.43 1012.00 1012.33 1012.65 1012.94 1013.33 1013.69 1013.93 1014.13 1014.36 1014.65 1014.76 1014.89 1015.17 1015.65 1015.93 1015.93 1016.04 1015.98 1015.87 1016.31 1016.52 1016.84 1017.38 1017.83 1018.00 1018.28 1018.72 1019.11 1019.06 1019.16 1019.32 1019.49 1019.63 1019.73 1020.11 1020.22
1007.17 1006.85 1005.94 1004.75 1004.42 1004.72 1005.67 1007.94 1008.97 1009.70 1010.24 1010.90 1011.73 1011.99 1012.26 1012.66 1012.79 1013.08 1013.41 1013.82 1014.07 1014.23 1014.53 1014.88 1015.02 1015.33 1015.66 1015.84 1015.79 1015.90 1016.11 1016.16 1016.21 1016.64 1017.11 1017.48 1017.67 1017.82 1018.34 1018.73 1019.31 1019.38 1019.46 1019.54 1019.88 1020.11 1020.02 1020.23 1020.15
1006.85 1006.11 1005.30 1004.55 1004.67 1004.77 1005.88 1007.23 1008.87 1009.90 1010.34 1010.75 1011.51 1011.98 1012.07 1012.44 1012.67 1012.72 1013.00 1013.34 1013.70 1014.09 1014.37 1014.64 1014.95 1015.30 1015.78 1016.08 1016.13 1016.25 1016.17 1016.30 1016.41 1016.54 1016.98 1017.29 1017.56 1017.82 1018.21 1018.40 1018.84 1019.34 1019.85 1020.11 1019.91 1019.95 1019.99 1020.00 1019.82
1005.74 1004.94 1004.83 1004.31 1004.28 1005.00 1006.18 1007.61 1009.01 1009.80 1010.41 1010.80 1011.31 1011.51 1011.68 1011.80 1011.91 1012.37 1012.73 1013.30 1013.79 1013.99 1014.39 1014.67 1014.84 1015.21 1015.83 1016.19 1016.50 1016.57 1016.57 1016.41 1016.47 1016.52 1016.79 1017.10 1017.28 1017.62 1017.95 1018.17 1018.52 1019.27 1019.84 1019.83 1019.83 1019.69 1019.70 1019.99 1019.91
1003.97 1003.81 1003.50 1004.09 1004.75 1005.07 1007.31 1008.05 1008.82 1009.15 1009.37 1009.76 1010.45 1011.12 1011.37 1011.59 1011.69 1012.06 1012.73 1013.13 1013.45 1013.75 1014.13 1014.70 1015.01 1015.18 1015.49 1015.90 1016.21 1016.23 1016.43 1016.36 1016.38 1016.26 1016.49 1016.77 1017.03 1017.26 1017.76 1017.89 1018.27 1018.89 1019.05 1019.03 1019.22 1019.43 1019.71 1019.65 1019.73
1001.96 1001.93 1002.57 1003.51 1005.44 1006.00 1007.36 1009.02 1009.29 1009.22 1009.29 1009.59 1009.97 1010.30 1010.70 1011.06 1011.48 1011.98 1012.39 1012.75 1013.17 1013.59 1013.87 1014.28 1014.97 1015.32 1015.47 1015.76 1016.15 1016.33 1016.47 1016.55 1016.61 1016.62 1016.87 1016.85 1016.72 1016.79 1017.21 1017.49 1018.02 1018.27 1018.64 1018.69 1018.80 1019.03 1019.37 1019.75 1019.67
1001.51 1001.31 1001.90 1003.68 1005.47 1006.96 1007.16 1009.34 1009.33 1008.89 1009.00 1009.11 1009.46 1009.81 1010.01 1010.41 1010.89 1011.56 1012.09 1012.47 1012.86 1013.11 1013.50 1014.00 1014.69 1015.13 1015.28 1015.63 1016.00 1016.29 1016.48 1016.84 1016.60 1016.60 1016.57 1016.47 1016.69 1017.44 1018.01 1017.83 1017.51 1017.65 1018.15 1018.40 1018.45 1018.55 1019.02 1019.25 1019.55
1000.59 1000.26 1001.63 1003.81 1005.43 1006.81 1007.75 1008.48 1008.51 1009.10 1009.37 1008.81 1008.65 1008.89 1008.93 1008.99 1009.83 1010.59 1011.13 1011.53 1011.98 1012.47 1013.07 1013.57 1014.16 1014.68 1015.01 1015.41 1015.69 1016.11 1016.53 1016.60 1016.43 1016.74 1016.86 1016.86 1017.41 1017.59 1017.69 1018.07 1018.19 1017.74 1017.54 1018.07 1018.33 1018.44 1018.71 1018.75 1018.97
999.87 1000.67 1002.06 1003.71 1005.74 1007.30 1007.39 1008.47 1010.45 1009.77 1008.37 1007.81 1007.82 1007.86 1008.14 1008.55 1009.03 1009.72 1010.35 1011.03 1011.57 1012.11 1012.59 1013.09 1013.73 1014.29 1014.63 1015.00 1015.21 1015.66 1016.16 1016.33 1016.49 1016.75 1017.32 1017.25 1017.06 1016.77 1016.61 1017.11 1017.05 1017.05 1017.02 1017.36 1017.51 1018.02 1018.25 1018.33 1018.31
1000.11 1002.11 1003.47 1004.97 1006.35 1007.57 1007.88 1008.71 1009.86 1009.22 1008.53 1007.37 1007.74 1008.61 1008.56 1008.25 1008.78 1009.09 1009.87 1010.31 1010.90 1011.40 1011.93 1012.48 1012.99 1013.48 1013.82 1014.31 1014.55 1014.87 1015.37 1015.79 1016.03 1016.47 1017.06 1017.19 1017.21 1016.91 1016.47 1016.40 1016.50 1016.34 1016.38 1016.45 1016.74 1017.31 1017.81 1018.04 1017.97
1000.32 1001.79 1003.45 1004.68 1006.47 1007.87 1008.27 1009.53 1009.23 1007.95 1008.49 1007.61 1007.38 1008.00 1007.89 1008.55 1008.98 1009.21 1008.81 1009.38 1009.87 1010.60 1011.24 1011.63 1012.16 1012.43 1012.74 1013.19 1013.55 1014.09 1014.68 1015.11 1015.36 1015.63 1016.36 1016.41 1016.28 1015.95 1015.77 1015.74 1015.86 1016.15 1016.14 1015.94 1016.15 1016.79 1017.25 1017.58 1017.57
999.87 1000.99 1001.81 1004.09 1006.39 1007.86 1008.83 1009.75 1008.92 1008.09 1007.87 1007.51 1007.89 1008.17 1008.12 1008.38 1009.17 1009.45 1009.73 1010.27 1009.91 1009.85 1010.20 1010.59 1011.15 1012.01 1012.27 1012.32 1012.87 1013.39 1013.97 1014.43 1014.66 1014.85 1015.11 1015.55 1015.57 1015.51 1015.39 1015.40 1015.63 1015.84 1015.59 1015.73 1015.97 1016.27 1016.56 1016.93 1017.06
999.43 1000.44 1001.88 1003.93 1006.60 1008.22 1009.35 1009.65 1009.39 1008.38 1007.70 1007.63 1007.71 1007.68 1007.47 1008.07 1008.36 1008.36 1009.01 1009.47 1009.85 1009.55 1009.25 1010.05 1010.43 1011.01 1011.92 1012.32 1012.63 1013.25 1013.36 1013.65 1014.06 1014.35 1014.40 1014.54 1014.80 1014.99 1014.97 1015.12 1015.23 1015.07 1015.29 1015.48 1015.55 1015.80 1015.91 1016.28 1016.35
999.85 1000.68 1002.11 1003.80 1005.43 1007.60 1009.31 1009.58 1008.40 1008.06 1007.22 1007.05 1007.77 1007.63 1006.67 1007.52 1007.61 1007.00 1008.46 1008.82 1008.85 1008.81 1009.18 1009.22 1010.18 1010.64 1011.55 1012.13 1012.23 1012.66 1012.69 1013.01 1013.40 1013.83 1013.81 1013.63 1013.98 1014.46 1014.57 1014.50 1014.35 1014.50 1014.70 1015.12 1015.19 1015.42 1015.41 1015.65 1015.89
999.71 1000.55 1001.82 1003.85 1005.68 1006.92 1008.12 1008.84 1007.55 1007.77 1007.77 1007.85 1007.89 1007.48 1007.16 1007.63 1008.01 1009.06 1009.45 1008.56 1007.39 1007.46 1008.10 1008.61 1009.36 1010.06 1010.71 1011.34 1011.41 1011.83 1012.07 1012.41 1012.75 1013.03 1013.33 1013.32 1013.21 1013.25 1013.54 1013.57 1013.89 1014.06 1014.15 1014.19 1014.43 1014.66 1014.94 1015.25 1015.44
Wind_Speed
11 6 2 1 1 0 2 3 3 7 6 7 10 12 11 8 1 4 12 11 15 12 11 12 13 14 15 13 12 11 10 10 10 10 10 10 11 12 12 12 13 14 15 15 15 16 17 16 16
5 6 2 1 3 2 1 4 7 5 13 10 12 7 10 4 7 13 11 15 14 13 9 11 15 14 15 13 11 10 10 8 8 10 10 10 10 11 12 12 13 14 14 15 15 14 15 15 15
4 4 1 2 2 4 5 3 15 12 7 6 6 7 4 3 14 12 15 17 15 11 9 12 16 14 15 13 12 9 9 8 7 9 11 10 10 11 12 12 15 13 13 14 14 14 14 15 15
5 1 2 1 2 1 8 9 15 12 6 8 11 9 5 4 11 12 19 17 15 11 8 15 16 16 14 14 11 11 9 9 7 10 12 12 12 12 12 14 14 13 12 14 12 12 13 13 11
1 2 2 3 3 4 3 7 10 8 7 10 7 6 5 4 17 22 20 17 16 11 10 12 15 15 14 13 12 12 11 10 11 14 14 14 13 11 12 13 12 12 13 13 11 11 11 10 10
3 1 1 1 5 7 7 10 11 9 13 12 12 10 3 9 20 18 18 17 16 14 11 11 16 15 15 13 13 13 12 14 16 16 15 13 13 12 12 12 11 12 12 11 10 9 9 8 7
4 4 4 5 6 7 9 11 10 12 13 9 17 9 5 10 11 16 16 14 13 13 12 9 9 13 15 14 13 14 15 15 16 15 14 14 12 12 11 11 11 11 11 11 10 9 10 8 5
3 2 6 3 5 4 9 10 12 15 7 16 11 8 12 11 9 15 15 13 12 10 10 9 7 7 6 6 13 13 14 14 15 14 14 13 13 12 11 8 10 11 9 9 10 9 7 7 6
1 1 5 6 6 10 9 8 11 11 17 6 6 8 19 13 18 17 15 12 10 8 8 10 9 6 6 5 8 11 14 14 14 12 12 7 4 5 8 7 11 12 10 7 7 8 8 7 9
2 1 6 3 6 13 15 12 10 7 11 4 10 16 16 15 21 20 18 14 13 10 8 9 8 7 6 5 5 5 5 4 3 5 7 5 4 3 4 8 9 10 9 8 5 8 7 6 3
2 5 4 4 14 5 14 12 3 13 3 7 21 23 18 15 19 18 17 17 15 13 9 8 8 7 7 6 3 3 2 3 3 5 4 4 4 2 2 1 2 3 7 3 3 2 3 4 3
2 13 14 9 6 9 11 6 5 4 4 9 18 25 15 15 16 14 14 15 15 14 11 9 7 7 6 5 4 4 3 3 3 3 5 4 3 3 1 1 2 3 3 4 3 2 1 2 2
5 9 14 13 15 8 9 4 7 10 17 16 19 15 11 10 10 9 9 15 14 12 12 11 10 8 6 5 4 4 4 5 7 5 4 4 4 5 4 2 2 3 4 3 2 2 3 2 2
4 9 18 10 13 13 16 13 8 10 18 16 16 12 10 8 8 8 10 12 13 12 13 10 10 8 7 6 6 5 3 4 6 7 6 8 6 5 4 4 3 3 4 4 2 3 4 2 2
6 7 6 6 10 13 18 6 11 16 16 18 14 10 10 7 7 9 10 9 8 7 11 11 9 7 7 6 6 4 3 4 5 5 8 6 5 5 5 4 3 4 3 4 3 3 2 1 2
1 4 3 6 14 2 8 5 17 17 18 15 15 12 13 9 8 6 8 8 9 6 6 8 8 9 7 6 5 3 2 2 4 4 5 5 4 5 5 4 3 3 3 3 2 3 3 2 3
1 4 5 4 2 5 6 7 17 16 15 15 14 15 13 11 10 8 11 8 7 8 7 7 7 8 7 5 4 3 2 1 3 3 4 6 6 6 4 4 4 3 0 1 2 1 4 4 4
4 6 6 6 5 9 8 9 16 17 16 16 13 13 12 16 12 13 14 11 9 8 7 8 6 6 6 4 2 1 1 2 2 3 5 7 4 6 5 4 4 4 3 2 3 4 4 4 6
4 10 7 4 8 8 7 17 15 15 13 14 12 10 8 12 10 13 13 10 10 8 8 7 7 7 6 2 2 1 2 3 1 3 6 6 5 6 7 4 4 4 4 4 4 3 2 2 2
12 16 7 3 2 7 5 9 14 15 16 17 16 12 12 9 11 15 12 10 12 10 7 8 6 7 7 4 3 2 2 3 1 3 5 7 5 6 6 6 6 6 4 5 5 4 1 1 3
8 8 6 10 5 10 12 4 4 5 10 13 14 15 12 13 12 10 13 13 10 10 9 7 7 7 6 6 2 1 2 2 2 0 2 5 7 7 6 6 5 6 5 5 4 4 5 2 2
3 6 6 19 13 8 4 5 6 10 9 15 15 14 15 12 15 13 14 12 11 12 9 8 9 8 7 7 4 5 4 3 3 3 2 4 4 4 6 4 4 6 4 5 5 5 4 4 3
9 3 4 20 7 8 3 7 2 9 7 12 16 18 18 18 18 17 17 17 15 13 9 8 8 7 6 6 6 5 4 4 1 1 4 2 7 5 7 7 7 4 4 4 5 4 5 4 4
2 5 9 6 6 2 5 5 5 2 8 13 15 18 19 18 18 18 17 14 13 12 11 9 10 9 8 7 8 8 8 6 3 2 3 3 4 3 7 10 10 5 7 8 7 7 6 6 5
6 8 4 4 3 4 3 8 7 7 9 3 6 4 4 14 17 17 17 16 14 15 14 12 13 13 11 11 11 11 10 9 8 6 5 8 4 3 8 13 6 8 8 10 7 7 7 6 6
4 9 8 4 2 1 8 3 6 8 8 5 11 9 8 5 2 11 18 18 17 17 16 15 15 16 16 15 16 11 10 8 7 7 7 6 7 6 8 8 8 9 9 7 6 5 7 7 7
3 2 6 8 4 6 2 1 6 8 6 8 11 5 5 7 7 4 6 10 14 17 19 18 16 15 15 16 12 12 10 10 8 8 6 8 8 6 11 12 10 9 6 6 7 6 7 6 7
1 3 5 4 4 1 2 2 6 8 7 7 9 5 4 10 8 1 2 6 11 16 18 16 17 16 13 10 8 8 10 10 8 6 9 8 8 11 11 11 9 7 6 6 7 6 6 7 6
6 6 3 5 6 7 3 7 7 9 10 7 5 6 7 11 7 5 10 17 18 16 15 17 12 10 8 8 10 11 9 8 7 8 9 9 6 7 9 10 10 10 10 10 9 7 7 9 7
6 4 5 7 2 3 5 7 7 8 5 4 6 7 7 6 8 3 12 24 22 20 14 14 10 11 10 10 9 10 9 9 10 10 10 9 10 7 8 8 8 9 10 10 11 10 9 10 8
Wind_Direction
185 179 192 135 66 161 175 213 155 115 60 68 70 101 114 33 47 160 132 137 136 140 149 145 142 134 128 125 118 113 111 111 112 113 108 108 102 107 114 116 123 117 112 112 108 108 110 110 114
177 167 240 242 123 99 108 246 96 114 134 99 72 58 49 92 76 112 118 137 135 137 139 139 137 134 128 124 119 111 110 116 123 123 120 114 109 116 121 124 129 124 116 119 122 121 117 115 118
225 210 241 217 191 170 142 274 120 128 120 83 105 53 67 78 107 137 131 134 134 131 134 142 139 135 129 121 113 111 110 112 123 135 129 123 114 113 118 124 126 127 125 125 122 122 120 121 120
200 185 283 227 225 101 155 186 144 125 72 57 105 77 76 142 147 133 139 135 131 132 140 136 139 131 123 121 113 106 106 102 118 134 133 127 121 119 121 123 127 133 133 122 123 121 123 123 121
289 46 333 261 232 113 160 150 136 134 94 123 128 126 93 133 128 139 143 135 134 135 137 135 136 129 123 116 112 112 104 99 113 139 130 125 118 119 125 128 133 128 129 122 122 124 124 124 118
60 75 329 321 121 150 164 159 148 108 119 118 104 115 88 134 140 150 141 142 143 140 136 139 133 129 122 118 114 111 110 103 106 122 123 123 120 124 126 132 133 134 130 127 125 123 115 118 122
62 2 330 302 119 159 160 165 175 145 148 141 137 122 133 150 147 148 139 137 138 140 137 135 131 136 130 122 119 118 113 110 114 117 118 117 125 129 135 142 141 139 137 130 128 128 128 129 121
93 51 293 245 191 152 161 176 164 155 147 122 142 164 172 165 138 129 129 130 134 140 139 137 130 121 126 130 125 124 122 121 122 125 128 130 133 137 140 131 142 141 141 137 133 138 127 130 126
121 165 235 240 178 96 152 182 179 144 136 180 167 153 151 130 129 128 129 130 133 142 150 142 137 136 130 129 138 130 132 132 135 126 125 103 121 133 128 148 151 146 133 132 146 141 133 114 86
34 225 250 295 78 132 134 138 141 134 157 65 104 123 126 133 140 140 143 148 152 153 170 159 145 146 149 154 136 149 141 120 143 147 141 138 109 124 151 161 160 134 128 128 120 144 128 80 46
175 243 345 215 135 145 147 174 86 133 203 187 153 150 144 140 145 143 150 157 160 160 171 173 155 162 170 144 154 168 148 140 158 180 151 161 124 86 120 284 92 105 113 52 73 63 46 129 119
261 247 269 262 144 140 161 144 99 142 171 136 158 145 140 140 146 139 142 155 151 164 175 167 158 163 180 140 176 181 167 163 160 207 166 137 126 171 114 244 156 113 82 99 80 58 116 136 158
202 299 312 307 150 110 113 116 98 92 110 121 133 139 125 129 130 137 125 151 147 160 165 166 157 166 159 163 172 177 196 173 161 174 188 144 140 172 173 161 132 115 140 120 119 134 247 325 335
229 282 289 309 132 122 116 127 95 125 126 131 142 144 136 141 139 128 129 138 145 153 159 158 162 155 154 177 185 184 182 191 173 167 179 165 165 170 168 144 140 144 169 143 175 228 211 207 276
284 300 344 268 119 121 113 85 127 146 141 141 151 150 150 162 146 151 150 150 148 167 155 166 165 151 156 164 160 176 197 201 159 177 178 170 166 176 162 145 173 172 197 162 169 228 182 193 241
341 14 55 211 146 123 91 126 148 156 146 148 157 166 170 178 169 165 159 168 161 161 171 161 171 169 163 163 161 171 127 112 137 166 164 161 171 186 142 147 183 188 170 180 111 163 133 225 210
239 260 211 194 139 126 96 124 166 160 154 151 170 178 178 181 181 177 174 184 172 161 155 173 165 173 163 171 161 180 144 174 154 155 132 169 183 159 146 162 182 161 239 59 140 217 183 187 201
165 244 178 187 193 110 112 129 156 162 162 163 172 184 182 182 190 182 178 179 172 166 148 159 173 167 158 129 118 263 19 261 183 192 160 162 169 171 158 182 189 151 152 198 216 182 198 189 193
198 239 204 236 210 100 124 127 158 164 168 162 177 181 190 194 173 183 178 168 171 175 160 163 146 169 147 136 125 272 233 262 162 198 159 169 179 169 172 187 172 145 201 199 200 213 220 180 200
226 221 199 183 128 89 91 123 153 172 176 169 174 186 193 201 179 178 178 176 178 182 188 161 171 159 157 150 176 167 193 244 188 197 170 192 186 179 182 182 177 174 190 199 197 181 202 203 202
317 134 177 160 170 88 128 61 176 202 159 170 178 187 195 195 186 178 177 182 179 176 195 169 159 169 176 176 158 239 33 351 334 95 142 202 205 195 189 191 175 190 187 200 197 184 182 228 211
298 169 128 132 129 164 185 193 233 176 181 177 185 189 190 180 184 176 184 187 190 196 190 164 178 194 184 186 173 178 178 209 226 209 172 199 198 18 0 308 211 194 181 208 212 190 190 155 229
217 232 119 161 111 125 230 98 241 130 200 196 186 195 195 188 179 187 187 192 195 192 182 185 186 189 211 187 195 182 193 226 247 60 88 46 95 91 14 332 295 254 202 209 209 229 205 186 166
334 3 36 71 127 109 207 102 15 328 223 200 194 197 195 194 189 190 193 188 194 197 190 184 182 200 204 201 203 195 199 222 194 192 100 113 149 144 166 243 255 239 229 211 200 205 201 203 210
78 61 324 345 27 209 152 66 224 298 310 128 161 99 331 199 193 191 192 194 196 193 194 190 189 202 200 205 210 201 204 203 200 183 162 158 176 227 206 230 250 235 243 223 204 176 207 209 210
190 150 155 223 143 82 36 126 250 166 289 230 136 131 115 73 63 215 191 195 195 197 197 194 195 202 202 205 215 210 205 213 210 193 161 190 198 210 223 234 229 231 232 220 200 193 196 205 218
271 244 192 102 60 100 160 327 305 326 263 248 104 133 122 97 79 33 2 229 211 202 199 201 198 212 210 210 213 214 205 199 207 205 202 175 200 210 226 226 225 233 225 226 197 206 204 198 211
164 222 17 24 138 92 348 215 219 245 251 292 129 161 160 137 129 202 305 305 252 224 203 203 199 199 211 212 198 215 211 210 198 200 222 210 190 198 210 223 223 227 234 227 198 207 199 201 227
8 353 40 112 123 150 116 261 216 221 224 231 62 243 189 134 137 234 303 288 261 219 206 204 190 192 202 194 209 206 205 194 190 197 225 231 197 200 194 205 212 215 220 228 206 212 196 208 214
170 203 137 113 309 46 117 255 236 238 300 311 327 308 8 97 96 334 292 290 242 200 196 195 181 175 187 201 191 197 199 198 206 211 213 222 235 217 210 204 213 217 216 204 202 204 205 210 216